Home > Time Zones > World Clock > Weather > India > Sikar > Past weeks

Flag for India Weather past 2 weeks in Sikar, Rajasthan, India

Now
90 °F

Broken clouds.


Feels Like: 87 °F
Forecast: 73 / 91 °F
Wind: 5 mph from East

Location: Jaipur / Sanganer

Current Time: Oct 24, 2014 at 6:27:46 PM

Latest Report: Oct 24, 2014 at 5:00 PM


Visibility: 2 mi

Pressure: 29.89 "Hg

Humidity: 27%

Dew point: 52 °F

Location of SikarLocation

Historic Weather in Sikar — Graph

°F

Sikar temperature yesterday

Maximum temperature yesterday: 95 °F (at 3:00 PM)
Minimum temperature yesterday: 70 °F (at 7:00 AM)
Average temperature yesterday: 83 °F

Past Weeks' High & Low Weather Summary

 TemperatureHumidityPressure
High95 °F (Oct 10, 3:00 PM)94% (Oct 16, 5:00 AM)30.12 "Hg (Oct 16, 5:00 AM)
Low64 °F (Oct 18, 6:00 AM)13% (Oct 11, 4:00 PM)29.65 "Hg (Oct 11, 3:00 PM)
Average80 °F47%29.94 "Hg
* Reported Oct 9 5:00 PM — Oct 24 5:00 PM, Sikar, Weather by CustomWeather, © 2014

Note: Actual official high and low records may vary slightly from our data, if they occured in-between our weather recording intervals... More about our weather records

Advertising

Sikar weather history for previous 24 hours

 ConditionsComfort  
Time TempWeatherWind HumidityBarometerVisibility
5:00 PM
Oct 24
90 °FBroken clouds.5 mph27%29.89 "Hg2 mi
4:00 PM90 °FBroken clouds.3 mph27%29.89 "Hg2 mi
3:00 PM90 °FScattered clouds.7 mph27%29.89 "Hg2 mi
2:00 PM93 °FHaze.3 mph23%29.89 "Hg2 mi
1:00 PM91 °FHaze.5 mph24%29.92 "Hg1 mi
12:00 PM91 °FHaze.2 mph30%29.95 "Hg1 mi
11:00 AM88 °FScattered clouds.1 mph33%29.98 "Hg1 mi
10:00 AM84 °FScattered clouds.5 mph35%29.98 "Hg1 mi
9:00 AM81 °FScattered clouds.8 mph39%29.98 "Hg1 mi
8:00 AM77 °FPartly sunny.8 mph44%29.95 "Hg1 mi
7:00 AM77 °FPassing clouds.7 mph44%29.95 "Hg1 mi
6:30 AM77 °FPassing clouds.1 mph44%29.95 "Hg1 mi
6:00 AM75 °FPassing clouds.No wind47%29.95 "Hg1 mi
5:00 AM79 °FPassing clouds.6 mph42%29.92 "Hg1 mi
4:00 AM81 °FPassing clouds.6 mph39%29.92 "Hg1 mi
3:00 AM81 °FPassing clouds.6 mph39%29.92 "Hg1 mi
2:00 AM79 °FPassing clouds.2 mph45%29.92 "Hg1 mi
1:00 AM79 °FPassing clouds.3 mph45%29.95 "Hg1 mi
11:00 PM
Oct 23
81 °FPassing clouds.3 mph39%29.95 "Hg1 mi
10:00 PM81 °FPassing clouds.2 mph39%29.95 "Hg1 mi
9:00 PM81 °FPassing clouds.1 mph34%29.95 "Hg1 mi
8:00 PM82 °FPassing clouds.No wind37%29.95 "Hg1 mi
7:00 PM86 °FPassing clouds.No wind29%29.92 "Hg1 mi
6:00 PM90 °FPartly sunny.2 mph24%29.92 "Hg1 mi
Weather by CustomWeather, © 2014

See weather overviewHow to use our weather pages